Zurück zum Katalog

STARLINK-3925

AktivKommunikationVLEO
NORAD 52498·PAYLOAD·🇺🇸 United States

Gestartet May 6, 2022 von Cape Canaveral Space Force Station

Loading…

Nächste Überflüge (nächste 24 Stunden)

TLE

AktuellSource: CelesTrak SupGP

Epoche: Sep 14, 2026, 22:03 UTC

1 52498C 22049AZ  26257.91923611  .00051936  00000+0  15351-2 0  2576
2 52498  53.1571 263.4799 0001020  89.3055 293.7635 15.34352320    19

Verfolge STARLINK-3925 in Echtzeit mit AllMySat

Download on the App Store